COSMOS 2251 DEB, 34449

Orbit data source: Space-Track

COSMOS 2251 DEB, 34449 is space debris in LEO originally from a launch on Wed, 16 Jun 1993 UTC launched from the Plesetsk Missile And Space Complex (PKMTR). The debris from Iridium 33, an American commercial communications satellite, has been tracked extensively since its accidental collision with the defunct Russian satellite Cosmos 2251 in 2009. This event, occurring at high speed in low Earth orbit (LEO), generated thousands of pieces of space debris, significantly increasing the risk of further collisions. The Iridium 33 debris cloud has impacted space traffic management and orbital debris mitigation strategies, making it a subject of ongoing study in space situational awareness.

Loading next visibility...
Identifier
34449, 1993-036SS
Orbit
LEO
Country
Flag of CISCIS
Related business
Manufacturer
Unknown
Mission
Spacecraft
Bus & Motor
Unknown
Mass
Unknown
Launch date (UTC)
1993-06-16 (33 years ago)
Launch vehicle
Unknown
Launch site
Plesetsk Missile And Space Complex (PKMTR)
Object type
Payload
Rocket body
Debris
Shape & HBR
Unknown shape, 0.1 m
Radar Cross Section
Medium (>0.1 m² and <1 m²)

Expand to show TLE details & history
Last TLE update: 1 day ago

TLE from 1 day ago
0 COSMOS 2251 DEB
1 34449U 93036SS  26256.91933022  .00035009  00000-0  18422-2 0  9991
2 34449  74.0307 226.2372 0023749 217.9013 173.1892 15.15238457928347
Epoch: 2026-09-13T22:03Z
TLE epoch observation values (Epoch: 2026-09-13T22:03:50.131Z)
Latitude
29.85617°
Longitude
-88.22673°
Altitude
540.011 km
Speed
7.586 km/s
True Right ascension
15h 42m 33s
True Declination
29° 42' 12"
Sunlit
Object was in daylight at epoch
Visualization orbit readout
Latitude
Unknown
Longitude
Unknown
Altitude
Unknown
Speed
Unknown
Apparent Right ascension
Unknown
Apparent Declination
Unknown
Sunlit
N/A
Visualization observer readout
Local Sidereal Time
14:42:11
Azimuth
Unknown
Elevation
Unknown
Doppler factor
Unknown
Orbital elements
Apogee altitude
534.169 km
Perigee altitude
501.415 km
Semi-major axis
6,895.929 km
Eccentricity
0.00237
Inclination
74.0307°
RAAN
226.2372°
Arg. of periapsis
217.9013°
True anomaly
173.22138°
Mean anomaly
173.1892°
Eccentric anomaly
173.2053°
Mean motion
3.79013 °/min
Orbital period
94.98 mins
BSTAR
0.0018422
Loading maneuver chart data...
Computing Atmospheric mass density...

Documentation

Showing up to 5 results
|